Vertical_Velocity
-2 -4 0 -4 -4 -9 0 -2 3 -0 2 8 -0 1 -3 0 -5 1 -1 3 4 2 -0 1 2 -2 -1 -0 -5 -2 -9 -0 0 -12 -1 -1 -3 -3 -3 3 -2 -1 3 -15
3 3 3 -1 -1 -4 -5 2 -4 3 9 3 -0 -0 -1 -0 2 -4 0 0 2 -0 1 7 4 -1 -5 3 0 -3 -3 -1 3 9 7 4 1 -2 -1 0 4 -5 5 -7
1 1 5 1 -2 -1 -1 1 2 -0 5 2 7 3 -9 -2 -3 -3 1 -1 8 7 3 -1 -4 -1 -2 -0 -1 0 4 1 1 -6 -13 -3 3 1 0 3 6 -9 -10 -10
-1 -1 -2 -1 5 4 -1 -2 0 6 -1 -1 -1 1 2 0 -0 -0 1 -2 3 5 4 1 -2 -2 -3 -3 -8 -2 9 2 7 -4 -1 3 1 1 -1 5 -12 10 -20 2
-2 -3 -4 -2 2 -0 -5 7 2 -4 -3 -2 0 -3 -3 4 -4 5 -5 0 1 1 3 6 1 2 1 -2 -2 1 0 -10 4 -6 -2 3 2 -2 1 -0 -2 3 4 -11
-1 1 -4 -3 10 1 1 -3 -2 -0 -4 -1 4 -1 -3 -3 3 -10 3 4 5 -1 -2 2 -1 1 -1 2 3 0 2 2 3 -11 1 3 10 -12 -3 -3 0 1 5 -24
-3 1 -4 0 2 16 0 -1 1 3 -4 3 0 1 4 0 -1 6 -7 4 9 -6 -1 -3 1 5 1 5 -5 1 2 1 1 -4 4 9 -30 -1 -0 1 -5 -1 3 -4
-1 -0 -3 -1 0 17 3 1 2 -1 -1 1 -1 1 0 -2 -3 2 7 -10 -1 3 -1 2 0 -5 8 -10 -3 0 2 3 1 3 1 -14 -5 -1 5 11 -18 3 3 -2
1 -4 -1 -3 3 7 4 -1 13 0 -1 -5 2 1 2 1 -1 -3 -2 -6 2 0 2 4 1 -2 -6 -6 0 1 7 4 10 7 8 -1 6 -3 0 3 -9 3 4 0
-2 -3 -0 -2 0 11 5 -1 -0 7 -1 -9 2 0 3 -1 0 2 -1 -3 -1 -1 0 2 2 -5 -0 2 2 -5 2 3 -2 -1 -0 -1 3 -0 2 14 8 -0 5 2
-0 -3 -2 -2 5 4 -3 -3 2 9 -1 -6 0 2 -1 1 -0 4 -7 -3 4 1 2 3 1 1 2 4 -3 3 4 5 -1 3 8 8 2 -5 -3 10 -13 5 -0 -2
2 3 -3 -2 3 5 2 -1 -11 -5 1 -4 -0 4 6 5 5 10 -1 -1 -0 0 2 1 1 0 0 2 2 -3 3 8 5 7 9 5 2 5 1 5 6 -3 5 -3
2 2 -1 -2 1 7 -4 -13 -1 1 -2 -6 -0 3 1 4 -0 7 2 -1 -4 3 -1 0 -0 2 2 1 3 -0 -5 -2 0 4 0 2 2 -0 3 2 3 1 5 -1
-3 -1 9 7 2 -8 -16 0 1 2 -0 3 -0 0 0 1 -1 3 3 5 1 2 2 1 1 1 1 1 3 -2 8 -2 3 -2 -4 -7 -3 -2 3 -1 3 -2 1 4
5 0 3 1 7 6 4 3 3 1 0 2 -3 0 5 2 0 -0 -1 2 7 0 1 2 1 0 -3 1 -2 -1 4 5 3 0 3 8 -1 0 4 -1 1 1 4 2
-2 -1 4 5 4 6 0 -0 0 0 -3 1 1 -3 1 4 1 -0 -5 3 1 4 3 3 0 -0 -2 -2 -0 5 3 6 9 6 4 3 7 7 4 4 3 3 2 8
-2 -1 -1 -0 1 -0 -0 2 -0 0 -0 0 -2 -1 -3 -2 2 3 -1 -2 -4 -2 0 -1 -0 -1 -7 -1 -0 -2 -1 2 -1 2 -0 -6 -6 1 8 2 8 10 5 4
-1 -0 -0 2 1 0 -3 -4 -0 1 -0 -1 -0 -2 -1 -4 0 2 1 -1 -1 -5 2 -2 -1 -4 -2 -1 3 0 0 -0 -3 -4 3 8 6 5 1 3 3 -7 -4 6
-1 -1 -1 -1 0 0 1 14 2 16 -1 -1 -2 3 0 -5 1 -1 2 -0 -2 2 -1 0 -6 1 1 5 3 0 2 4 3 2 2 1 -1 0 -1 2 -5 -1 1 -3
-0 -1 0 -1 -1 1 2 1 -0 -2 -1 -3 -1 -0 -0 3 -0 -1 0 -1 0 -0 4 -2 -3 3 1 0 4 3 0 2 2 -3 -11 -6 -3 -1 -0 2 -3 2 6 -0
-1 -3 -1 1 0 1 -1 -2 -4 -2 -3 -3 1 1 4 -3 3 1 1 0 0 -1 6 -4 1 1 2 0 1 1 1 0 1 4 4 3 3 1 -1 -2 -1 3 4 -3
-2 -1 -1 -1 -5 -3 -7 -0 -5 -3 2 -4 1 -0 2 -2 2 2 -2 -0 -2 1 1 -4 0 3 1 -0 1 1 0 0 -0 -0 1 1 0 -0 1 -1 -2 -0 2 2
-0 -1 -4 -7 -1 -12 -4 -1 -4 -3 -1 1 -4 -7 1 -3 -1 1 -1 -3 3 -1 -3 2 3 0 0 -0 0 -1 1 0 0 -0 0 1 1 -2 -2 -1 3 4 1 1
-6 -4 -6 -4 -2 -0 -0 1 1 -6 -1 0 -1 1 2 -0 -2 1 -3 4 -4 -2 -1 2 1 1 1 -0 1 -1 -0 -1 -0 -0 -0 0 -1 0 1 0 -0 1 1 -0
-6 -3 -1 -1 -0 -0 1 1 -1 1 -2 1 -1 2 0 -1 -2 -0 -2 -4 0 2 3 2 1 0 0 -0 -1 -1 -0 -1 0 0 -1 -1 0 0 -0 -1 -0 -2 -2 -2
-3 -3 -2 0 -1 -3 -3 -1 -1 2 0 1 1 -0 -2 1 1 -4 2 -2 2 2 1 2 0 0 -0 -0 1 1 1 1 0 0 1 1 -1 -2 -0 2 2 0 1 2
-2 -1 -3 -1 0 0 1 2 0 2 2 0 -0 -3 4 -1 -2 -1 0 1 2 1 -0 -1 1 2 -1 1 1 1 0 -0 -1 -0 0 0 0 1 1 -1 -2 0 1 1
Height
1521 1518 1515 1512 1507 1501 1496 1495 1493 1487 1488 1491 1486 1479 1477 1476 1472 1473 1472 1470 1468 1466 1464 1463 1463 1459 1460 1460 1463 1467 1464 1461 1457 1457 1459 1461 1458 1457 1459 1460 1455 1461 1456 1433
1519 1516 1513 1509 1506 1502 1498 1495 1489 1485 1485 1478 1475 1474 1472 1472 1469 1469 1467 1464 1465 1464 1463 1464 1454 1454 1457 1458 1458 1456 1460 1457 1453 1447 1461 1464 1459 1453 1450 1449 1447 1451 1446 1427
1516 1513 1510 1507 1505 1502 1500 1497 1489 1483 1482 1479 1476 1472 1467 1467 1467 1464 1463 1460 1461 1459 1456 1455 1450 1453 1454 1455 1455 1456 1458 1447 1439 1431 1430 1438 1448 1444 1446 1445 1445 1436 1432 1419
1513 1510 1508 1506 1504 1501 1501 1498 1493 1492 1483 1480 1485 1483 1472 1466 1466 1464 1461 1457 1456 1459 1453 1450 1448 1449 1451 1453 1452 1450 1454 1449 1444 1439 1438 1437 1436 1437 1439 1444 1439 1439 1422 1414
1511 1508 1506 1504 1502 1499 1499 1498 1496 1494 1491 1488 1484 1480 1477 1476 1475 1476 1468 1466 1469 1466 1462 1458 1458 1462 1454 1449 1450 1447 1446 1438 1440 1433 1433 1434 1432 1428 1429 1428 1428 1423 1418 1400
1510 1507 1504 1501 1498 1496 1495 1494 1495 1494 1489 1486 1484 1479 1478 1476 1477 1474 1473 1473 1472 1468 1468 1467 1466 1467 1466 1464 1463 1452 1449 1441 1441 1430 1427 1429 1427 1412 1418 1415 1412 1414 1405 1398
1507 1503 1500 1496 1494 1493 1492 1491 1492 1492 1483 1483 1480 1480 1480 1478 1477 1476 1472 1471 1470 1467 1465 1462 1458 1456 1455 1454 1451 1455 1450 1444 1443 1430 1426 1427 1398 1401 1404 1402 1400 1400 1396 1396
1503 1499 1495 1491 1489 1488 1486 1486 1487 1487 1483 1481 1480 1478 1478 1476 1474 1472 1470 1465 1467 1465 1464 1459 1449 1440 1438 1434 1435 1438 1443 1445 1435 1430 1414 1405 1399 1405 1411 1408 1396 1405 1404 1401
1499 1495 1490 1486 1483 1481 1480 1481 1482 1482 1483 1478 1478 1477 1477 1474 1471 1468 1466 1465 1463 1463 1459 1455 1452 1440 1431 1428 1420 1422 1424 1427 1426 1421 1420 1407 1426 1423 1422 1420 1399 1412 1412 1408
1495 1491 1486 1482 1478 1476 1475 1475 1477 1479 1480 1475 1476 1475 1474 1474 1472 1469 1465 1465 1462 1461 1455 1451 1445 1439 1433 1430 1425 1421 1416 1419 1419 1416 1413 1401 1435 1426 1416 1404 1409 1416 1417 1412
1490 1487 1482 1478 1475 1473 1472 1472 1473 1474 1475 1472 1471 1471 1471 1471 1471 1468 1466 1465 1460 1458 1456 1450 1447 1442 1438 1436 1426 1425 1422 1418 1404 1403 1403 1400 1436 1425 1428 1436 1427 1421 1415 1410
1486 1482 1479 1475 1471 1470 1470 1470 1470 1472 1474 1472 1468 1466 1465 1465 1466 1467 1465 1463 1462 1459 1456 1454 1451 1446 1444 1443 1434 1444 1439 1454 1442 1444 1441 1449 1447 1444 1441 1436 1428 1421 1412 1407
1480 1478 1475 1473 1470 1469 1468 1469 1470 1471 1472 1468 1464 1463 1462 1462 1461 1461 1463 1460 1460 1458 1458 1456 1452 1450 1446 1443 1450 1452 1458 1457 1453 1448 1447 1447 1445 1440 1437 1433 1427 1419 1412 1404
1478 1475 1474 1472 1471 1469 1468 1469 1469 1469 1469 1467 1464 1462 1460 1460 1459 1457 1456 1456 1457 1456 1456 1454 1452 1450 1449 1453 1462 1463 1472 1464 1462 1451 1451 1444 1443 1444 1440 1433 1426 1417 1411 1404
1478 1475 1473 1471 1470 1469 1468 1467 1466 1466 1470 1466 1463 1461 1461 1459 1456 1455 1453 1452 1452 1453 1453 1451 1450 1452 1454 1462 1466 1474 1479 1475 1470 1462 1462 1460 1454 1450 1443 1435 1428 1422 1414 1407
1477 1473 1471 1469 1468 1467 1466 1466 1467 1466 1466 1466 1463 1461 1459 1458 1456 1454 1452 1450 1450 1450 1451 1455 1459 1462 1460 1465 1472 1484 1479 1476 1474 1469 1462 1461 1456 1452 1445 1439 1431 1425 1418 1413
1474 1470 1468 1467 1466 1465 1466 1468 1467 1466 1465 1465 1463 1460 1459 1458 1456 1455 1454 1453 1453 1454 1457 1461 1465 1466 1466 1477 1482 1485 1481 1476 1472 1467 1463 1461 1456 1455 1448 1440 1435 1430 1425 1422
1470 1469 1467 1467 1466 1466 1466 1466 1465 1465 1465 1465 1465 1462 1460 1458 1457 1455 1455 1456 1457 1460 1464 1468 1470 1473 1476 1485 1489 1486 1482 1478 1475 1472 1469 1466 1462 1456 1449 1444 1437 1433 1430 1424
1470 1469 1469 1468 1468 1467 1467 1462 1463 1460 1468 1467 1470 1469 1463 1461 1458 1456 1456 1457 1462 1466 1470 1473 1475 1482 1489 1493 1489 1486 1483 1480 1477 1473 1470 1467 1461 1456 1452 1448 1442 1444 1440 1436
1471 1470 1470 1470 1470 1468 1467 1467 1467 1467 1469 1471 1474 1473 1468 1467 1460 1456 1457 1459 1463 1466 1474 1475 1482 1493 1496 1494 1491 1487 1484 1480 1476 1472 1467 1464 1461 1458 1455 1452 1452 1452 1447 1442
1472 1471 1472 1471 1470 1469 1468 1470 1472 1475 1476 1478 1477 1476 1473 1467 1464 1459 1458 1462 1465 1467 1473 1476 1486 1493 1496 1494 1491 1488 1485 1481 1478 1476 1473 1470 1467 1464 1462 1459 1457 1455 1449 1446
1474 1474 1473 1472 1472 1472 1475 1485 1483 1483 1484 1482 1479 1477 1474 1469 1466 1463 1463 1463 1466 1470 1476 1480 1489 1498 1497 1494 1491 1488 1485 1482 1480 1477 1474 1472 1469 1466 1464 1462 1459 1456 1452 1449
1475 1475 1475 1480 1485 1489 1495 1498 1491 1489 1487 1484 1483 1479 1475 1471 1469 1467 1466 1466 1472 1477 1481 1491 1497 1499 1497 1494 1491 1488 1486 1483 1480 1478 1476 1473 1470 1467 1465 1462 1460 1457 1453 1450
1478 1481 1489 1494 1499 1499 1499 1499 1496 1494 1489 1486 1483 1479 1478 1475 1473 1473 1471 1480 1479 1484 1489 1496 1499 1499 1497 1494 1491 1488 1486 1483 1480 1478 1475 1473 1470 1467 1465 1462 1459 1456 1453 1452
1484 1488 1500 1501 1501 1499 1498 1496 1493 1491 1488 1485 1482 1480 1480 1478 1477 1480 1480 1484 1492 1493 1497 1499 1500 1499 1496 1493 1491 1488 1486 1483 1480 1478 1475 1473 1471 1468 1466 1464 1461 1458 1457 1454
1491 1496 1500 1501 1500 1499 1497 1494 1491 1488 1485 1483 1483 1482 1483 1488 1490 1489 1496 1495 1499 1501 1502 1501 1500 1498 1495 1493 1490 1488 1485 1483 1480 1478 1476 1473 1471 1468 1466 1464 1462 1460 1458 1455
1496 1501 1501 1501 1501 1500 1497 1493 1490 1487 1485 1484 1484 1488 1496 1497 1498 1502 1501 1503 1504 1503 1502 1500 1498 1496 1494 1492 1489 1487 1484 1482 1480 1478 1475 1473 1471 1468 1466 1463 1461 1458 1456 1454